Date String (YYYY-MM-DD hh:mm:ss) UTC,Instrument flags,Ambient pressure (hPa),Sample flow (lpm),Bypass flow (lpm),Sample temperature (°C),Ambient temperature (°C),ASC tube jacket temperature (°C),LED temperature (°C),Box temperature (°C),Sample RH (%),Span deviation,Mass concentration (μg/m³),Mass concentration (μg/m³),Mass concentration (μg/m³)
DateTimeUTC,F1_M11,P_M11,Q1_M11,Q2_M11,T1_M11,T2_M11,T3_M11,T4_M11,T5_M11,U1_M11,ZSPAN_M11,X0_M11,X2_M11,X1_M11
2022-01-31 03:00:00,,0823.9,5.02,0.00,27.2,26.4,00.0,36.3,28.9,05.7,0000.0,0009.95,0005.69,0005.40
2022-01-31 03:01:00,,0823.9,4.99,0.00,27.2,26.4,00.0,36.3,28.9,05.7,0000.0,0009.96,0005.69,0005.40
2022-01-31 03:02:00,,0823.9,4.99,0.00,27.2,26.4,00.0,36.2,28.9,05.7,0000.0,0009.93,0005.69,0005.41
2022-01-31 03:03:00,,0823.9,5.01,0.00,27.2,26.3,00.0,36.2,28.9,05.7,0000.0,0009.96,0005.69,0005.42
2022-01-31 03:04:00,,0823.9,4.98,0.00,27.2,26.3,00.0,36.2,28.9,05.8,0000.0,0009.98,0005.70,0005.43
2022-01-31 03:05:00,,0823.9,5.02,0.00,27.1,26.3,00.0,36.2,28.9,05.8,0000.0,0010.47,0005.71,0005.42
2022-01-31 03:06:00,,0823.9,4.99,0.00,27.1,26.3,00.0,36.2,28.9,05.9,0000.0,0010.93,0005.73,0005.41
2022-01-31 03:07:00,,0823.9,5.00,0.00,27.1,26.3,00.0,36.2,28.8,05.7,0000.0,0010.60,0005.74,0005.43
2022-01-31 03:08:00,,0823.9,5.02,0.00,27.1,26.3,00.0,36.2,28.8,05.7,0000.0,0010.76,0005.80,0005.47
2022-01-31 03:09:00,,0823.9,4.98,0.00,27.1,26.2,00.0,36.2,28.8,05.8,0000.0,0010.75,0005.86,0005.52
2022-01-31 03:10:00,,0823.9,5.01,0.00,27.0,26.2,00.0,36.1,28.8,05.8,0000.0,0010.99,0005.90,0005.56
2022-01-31 03:11:00,,0823.9,5.01,0.00,27.0,26.1,00.0,36.1,28.7,05.8,0000.0,0011.22,0005.97,0005.61
2022-01-31 03:12:00,,0823.9,4.98,0.00,27.0,26.1,00.0,36.1,28.6,05.8,0000.0,0011.26,0005.98,0005.64
2022-01-31 03:13:00,,0823.9,5.02,0.00,26.9,26.1,00.0,36.1,28.6,05.8,0000.0,0011.43,0006.05,0005.67
2022-01-31 03:14:00,,0823.9,4.98,0.00,26.9,26.0,00.0,36.1,28.6,05.9,0000.0,0011.50,0006.10,0005.70
2022-01-31 03:15:00,,0823.9,5.01,0.00,26.9,26.0,00.0,36.0,28.6,05.9,0000.0,0011.62,0006.15,0005.73
2022-01-31 03:16:00,,0823.9,4.98,0.00,26.9,26.0,00.0,36.0,28.6,05.9,0000.0,0011.46,0006.19,0005.77
2022-01-31 03:17:00,,0823.9,5.02,0.00,26.8,26.0,00.0,36.0,28.5,06.0,0000.0,0010.94,0006.30,0005.87
2022-01-31 03:18:00,,0823.8,4.99,0.00,26.8,25.9,00.0,36.0,28.5,06.1,0000.0,0010.60,0006.45,0006.00
2022-01-31 03:19:00,,0823.8,4.99,0.00,26.8,25.9,00.0,36.0,28.5,06.1,0000.0,0010.50,0006.54,0006.09
2022-01-31 03:20:00,,0823.8,5.00,0.00,26.8,25.9,00.0,35.9,28.5,06.1,0000.0,0010.58,0006.62,0006.17
2022-01-31 03:21:00,,0823.8,5.01,0.00,26.7,25.9,00.0,35.9,28.4,06.1,0000.0,0010.55,0006.68,0006.25
2022-01-31 03:22:00,,0823.8,4.98,0.00,26.7,25.8,00.0,35.9,28.4,06.1,0000.0,0010.38,0006.72,0006.33
2022-01-31 03:23:00,,0823.8,5.01,0.00,26.7,25.8,00.0,35.9,28.4,06.1,0000.0,0010.39,0006.81,0006.41
2022-01-31 03:24:00,,0823.8,4.99,0.00,26.7,25.8,00.0,35.9,28.4,06.0,0000.0,0010.62,0006.86,0006.48
2022-01-31 03:25:00,,0823.8,5.00,0.00,26.7,25.8,00.0,35.8,28.4,05.9,0000.0,0011.53,0006.98,0006.61
2022-01-31 03:26:00,,0823.8,5.01,0.00,26.7,25.8,00.0,35.8,28.4,05.8,0000.0,0011.81,0007.19,0006.85
2022-01-31 03:27:00,,0823.8,4.99,0.00,26.6,25.8,00.0,35.8,28.3,05.8,0002.0,0012.32,0007.50,0007.17
2022-01-31 03:28:00,,0823.8,5.01,0.00,26.6,25.8,00.0,35.8,28.3,05.8,0004.2,0013.04,0007.74,0007.41
2022-01-31 03:29:00,,0823.8,4.99,0.00,26.6,25.7,00.0,35.8,28.3,05.8,0004.2,0013.17,0007.85,0007.53
2022-01-31 03:30:00,,0823.8,5.02,0.00,26.6,25.7,00.0,35.7,28.2,05.8,0003.9,0013.33,0007.96,0007.62
2022-01-31 03:31:00,,0823.8,4.98,0.00,26.5,25.6,00.0,35.7,28.2,05.8,0003.2,0013.39,0008.03,0007.71
2022-01-31 03:32:00,,0823.8,5.01,0.00,26.5,25.5,00.0,35.7,28.1,05.8,0002.7,0013.44,0008.12,0007.81
2022-01-31 03:33:00,,0823.8,4.98,0.00,26.4,25.5,00.0,35.6,28.1,05.8,0002.1,0013.57,0008.21,0007.90
2022-01-31 03:34:00,,0823.8,5.02,0.00,26.4,25.4,00.0,35.6,28.0,05.8,0002.5,0013.58,0008.26,0007.95
2022-01-31 03:35:00,,0823.7,4.98,0.00,26.4,25.4,00.0,35.6,28.0,05.8,0002.6,0013.56,0008.33,0008.01
2022-01-31 03:36:00,,0823.7,5.01,0.00,26.4,25.4,00.0,35.6,28.1,05.8,0001.8,0012.56,0008.32,0008.03
2022-01-31 03:37:00,,0823.7,4.99,0.00,26.4,25.5,00.0,35.6,28.1,05.7,0001.8,0012.35,0008.24,0007.95
2022-01-31 03:38:00,,0823.7,4.99,0.00,26.4,25.5,00.0,35.5,28.1,05.7,0002.4,0012.63,0008.05,0007.74
2022-01-31 03:39:00,,0823.6,5.01,0.00,26.4,25.5,00.0,35.5,28.1,05.7,0002.6,0012.12,0007.85,0007.54
2022-01-31 03:40:00,,0823.7,4.99,0.00,26.4,25.6,00.0,35.5,28.2,05.7,0002.6,0012.03,0007.74,0007.43
2022-01-31 03:41:00,,0823.7,4.99,0.00,26.4,25.6,00.0,35.5,28.2,05.7,0002.3,0012.13,0007.66,0007.35
2022-01-31 03:42:00,,0823.6,5.02,0.00,26.4,25.6,00.0,35.5,28.2,05.7,0002.8,0012.16,0007.59,0007.26
2022-01-31 03:43:00,,0823.6,5.01,0.00,26.4,25.6,00.0,35.5,28.2,05.7,0003.5,0012.04,0007.46,0007.12
2022-01-31 03:44:00,,0823.7,4.98,0.00,26.4,25.7,00.0,35.5,28.2,05.7,0004.0,0011.89,0007.31,0006.95
2022-01-31 03:45:00,,0823.7,5.01,0.00,26.4,25.7,00.0,35.5,28.1,05.7,0005.0,0011.91,0007.25,0006.89
2022-01-31 03:46:00,,0823.8,4.99,0.00,26.4,25.6,00.0,35.4,28.1,05.7,0005.9,0011.90,0007.24,0006.87
2022-01-31 03:47:00,,0823.7,5.01,0.00,26.4,25.5,00.0,35.4,28.1,05.7,0006.5,0012.23,0007.23,0006.85
2022-01-31 03:48:00,,0823.8,5.00,0.00,26.3,25.5,00.0,35.4,28.0,05.7,0007.1,0012.52,0007.21,0006.83
2022-01-31 03:49:00,,0823.7,5.00,0.00,26.3,25.5,00.0,35.4,28.0,05.8,0006.7,0012.13,0007.20,0006.82
2022-01-31 03:50:00,,0823.8,5.00,0.00,26.3,25.5,00.0,35.4,28.0,05.9,0005.9,0011.46,0007.16,0006.78
2022-01-31 03:51:00,,0823.8,4.99,0.00,26.3,25.5,00.0,35.4,28.0,05.9,0006.3,0011.30,0007.07,0006.71
2022-01-31 03:52:00,,0823.8,5.02,0.00,26.3,25.5,00.0,35.4,28.0,05.8,0006.5,0011.02,0007.00,0006.63
2022-01-31 03:53:00,,0823.8,4.98,0.00,26.3,25.5,00.0,35.4,28.1,05.8,0006.0,0011.03,0007.00,0006.60
2022-01-31 03:54:00,,0823.8,5.00,0.00,26.3,25.5,00.0,35.4,28.1,05.8,0005.6,0011.12,0007.05,0006.63
2022-01-31 03:55:00,,0823.8,5.00,0.00,26.3,25.5,00.0,35.3,28.1,05.8,0005.7,0011.30,0007.13,0006.69
2022-01-31 03:56:00,,0823.8,5.00,0.00,26.3,25.6,00.0,35.3,28.1,05.8,0004.2,0011.17,0007.09,0006.66
2022-01-31 03:57:00,,0823.8,5.01,0.00,26.3,25.6,00.0,35.3,28.1,05.8,0000.0,0011.13,0007.02,0006.60
2022-01-31 03:58:00,,0823.8,4.99,0.00,26.3,25.5,00.0,35.3,28.1,05.8,0000.0,0010.78,0006.97,0006.53
2022-01-31 03:59:00,,0823.8,5.00,0.00,26.3,25.5,00.0,35.3,28.1,05.8,0000.0,0010.52,0006.92,0006.46
